Date,TemperatureHighF,TemperatureAvgF,TemperatureLowF,DewpointHighF,DewpointAvgF,DewpointLowF,HumidityHigh,HumidityAvg,HumidityLow,PressureMaxIn,PressureMinIn,WindSpeedMaxMPH,WindSpeedAvgMPH,GustSpeedMaxMPH,PrecipitationSumIn
2013-6-1,77.2,70.6,63.7,65.0,64.0,63.0,98,80,63,30.16,30.05,8,2,0,0.01
2013-6-2,72.2,66.5,64.2,70.0,65.1,63.0,99,95,75,30.08,29.95,8,2,0,0.77
2013-6-3,78.6,69.0,63.3,71.0,65.2,60.0,99,88,69,30.00,29.90,11,1,0,0.41
2013-6-4,78.6,70.5,64.5,67.0,63.5,60.0,89,79,66,30.10,29.98,7,2,0,0.00
2013-6-5,79.9,69.3,64.1,69.0,65.3,63.0,98,87,70,30.11,29.97,8,2,0,0.27
2013-6-6,70.6,66.1,62.3,69.0,65.4,62.0,99,97,92,30.01,29.84,6,1,0,0.53
2013-6-7,77.8,67.0,63.3,72.0,65.3,62.0,99,94,82,29.88,29.71,10,2,0,1.16
2013-6-8,77.7,69.2,62.4,69.0,65.0,61.0,98,87,71,30.14,29.87,9,1,0,0.03
2013-6-9,78.8,70.2,65.8,71.0,66.6,64.0,99,89,75,30.17,30.07,7,1,0,0.86
2013-6-10,71.3,66.9,63.5,69.0,66.2,63.0,99,98,89,30.08,29.96,13,4,0,0.66
2013-6-11,87.7,73.8,63.5,70.0,65.5,62.0,99,78,48,30.05,29.98,8,2,0,0.01
2013-6-12,87.7,77.9,71.8,76.0,67.4,59.0,87,70,56,30.05,29.95,9,2,0,0.00
2013-6-13,87.8,77.6,69.1,71.0,64.6,59.0,79,65,50,29.95,29.72,11,2,0,0.00
2013-6-14,77.6,70.0,62.5,62.0,54.9,53.0,81,60,44,30.08,29.78,22,6,0,0.00
2013-6-15,79.8,71.4,64.2,63.0,57.1,51.0,68,61,54,30.18,30.08,11,2,0,0.00
2013-6-16,80.8,72.5,64.8,66.0,61.7,56.0,80,69,57,30.18,30.06,11,2,0,0.00
2013-6-17,78.0,70.7,65.8,72.0,67.7,64.0,98,90,78,30.08,29.98,5,1,0,0.50
2013-6-18,77.9,68.5,65.5,73.0,66.3,61.0,99,93,78,29.99,29.84,11,2,0,0.61
2013-6-19,78.9,70.6,65.0,68.0,62.8,60.0,86,77,63,30.15,29.95,13,2,0,0.00
2013-6-20,78.4,70.5,64.2,68.0,64.1,61.0,95,81,63,30.26,30.14,6,1,0,0.00
2013-6-21,82.2,71.3,63.3,66.0,62.5,60.0,93,75,54,30.30,30.21,6,1,0,0.00
2013-6-22,82.7,72.3,62.7,63.0,60.5,57.0,87,68,46,30.27,30.15,5,1,0,0.00
2013-6-23,82.5,72.7,67.1,70.0,66.6,62.0,96,82,62,30.24,30.14,5,1,0,0.42
2013-6-24,80.9,73.6,67.1,72.0,69.4,67.0,98,87,72,30.25,30.13,8,2,0,0.16
2013-6-25,83.0,73.3,67.9,72.0,68.0,65.0,98,84,60,30.18,30.06,8,1,0,0.02
2013-6-26,82.3,73.1,66.9,74.0,68.1,65.0,97,84,73,30.08,29.95,10,1,0,0.09
2013-6-27,83.7,74.8,66.6,74.0,69.5,64.0,97,84,70,30.00,29.77,8,2,0,0.13
2013-6-28,89.9,77.8,70.6,72.0,66.9,64.0,87,70,44,29.84,29.64,6,2,0,0.00
2013-6-29,84.2,74.8,68.8,70.0,64.6,58.0,94,71,52,29.74,29.65,5,1,0,0.00
2013-6-30,80.3,72.2,66.3,70.0,66.1,58.0,98,82,63,29.85,29.71,7,1,0,0.00